Tracking 32420 objects as of 8-Dec-2025
HD Live streaming from Space Station
objects crossing your sky now

STARLINK-31861

Track STARLINK-31861 now!
10-day predictions
STARLINK-31861 is classified as:


NORAD ID: 59906
Int'l Code: 2024-100X
Perigee: 489.2 km
Apogee: 491.2 km
Inclination: 43.0 °
Period: 94.3 minutes
Semi major axis: 6861 km
RCS: Unknown
Launch date: May 28, 2024
Source: United States (US)
Launch site: AIR FORCE EASTERN TEST RANGE (AFETR)
Your satellite tracking list
Your tracking list is empty




NASA's NSSDC Master Catalog

Two Line Element Set (TLE):
1 59906U 24100X   25341.85134410  .00000502  00000-0  27792-4 0  9995
2 59906  43.0032 276.9066 0001496 282.4926  77.5758 15.27573873 87183
Source of the keplerian elements: AFSPC